SUR4697 SAAR-SABE

Flight info

Callsign SUR4697
Flight time 0h 54m
Altitude 23000
Route VASAL2G VASAL W20 MULTA W24 SNT SNT8Q
Aircraft A320/M-SDE3FGHIRWY/LB1

Departure

Time 2026-04-20 22:42
Airport Rosario Islas Malvinas International Airport (SAAR)

Arrival

Time 2026-04-20 23:36
Airport Aeroparque Jorge Newbery (SABE)
Time Latitude Longitude Altitude Speed Heading
2026-04-20 22:26 -32.91645 -60.78103 95 ft 0 kts 110°
2026-04-20 22:32 -32.91639 -60.78121 96 ft 3 kts 109°
2026-04-20 22:33 -32.91637 -60.78142 95 ft 3 kts 80°
2026-04-20 22:33 -32.91643 -60.78162 93 ft 3 kts 44°
2026-04-20 22:33 -32.91652 -60.78171 94 ft 0 kts 16°
2026-04-20 22:36 -32.91558 -60.78134 95 ft 25 kts 19°
2026-04-20 22:37 -32.91463 -60.78137 94 ft 11 kts 341°
2026-04-20 22:37 -32.91363 -60.78233 94 ft 30 kts 320°
2026-04-20 22:37 -32.91176 -60.78405 96 ft 35 kts 323°
2026-04-20 22:37 -32.90963 -60.78528 95 ft 34 kts 336°
2026-04-20 22:38 -32.90735 -60.78557 95 ft 34 kts
2026-04-20 22:38 -32.90496 -60.78504 94 ft 36 kts 12°
2026-04-20 22:38 -32.90250 -60.78442 90 ft 36 kts 12°
2026-04-20 22:38 -32.90004 -60.78378 92 ft 36 kts 12°
2026-04-20 22:39 -32.89758 -60.78328 93 ft 36 kts
2026-04-20 22:39 -32.89508 -60.78276 93 ft 36 kts 10°
2026-04-20 22:39 -32.89257 -60.78211 90 ft 37 kts 13°
2026-04-20 22:39 -32.89088 -60.78133 91 ft 9 kts 34°
2026-04-20 22:40 -32.89071 -60.78157 90 ft 4 kts 277°
2026-04-20 22:40 -32.89077 -60.78173 89 ft 1 kts 228°
2026-04-20 22:40 -32.89104 -60.78184 90 ft 9 kts 190°
2026-04-20 22:40 -32.89144 -60.78192 92 ft 5 kts 190°
2026-04-20 22:41 -32.89150 -60.78194 90 ft 0 kts 190°
2026-04-20 22:41 -32.89193 -60.78202 90 ft 28 kts 190°
2026-04-20 22:41 -32.89651 -60.78305 93 ft 100 kts 191°
2026-04-20 22:42 -32.90522 -60.78497 93 ft 152 kts 190°
2026-04-20 22:42 -32.91653 -60.78729 489 ft 164 kts 189°
2026-04-20 22:42 -32.92779 -60.78982 1195 ft 164 kts 190°
2026-04-20 22:42 -32.93902 -60.79246 1889 ft 167 kts 190°
2026-04-20 22:43 -32.95106 -60.79525 2290 ft 187 kts 190°
2026-04-20 22:43 -32.96458 -60.79838 2578 ft 209 kts 191°
2026-04-20 22:43 -32.97964 -60.80189 2924 ft 230 kts 191°
2026-04-20 22:43 -32.99554 -60.80557 3721 ft 234 kts 191°
2026-04-20 22:44 -33.01178 -60.80758 4550 ft 237 kts 174°
2026-04-20 22:44 -33.02754 -60.80164 5351 ft 242 kts 148°
2026-04-20 22:44 -33.04071 -60.78894 6157 ft 246 kts 138°
2026-04-20 22:44 -33.05344 -60.77542 6930 ft 250 kts 138°
2026-04-20 22:45 -33.06653 -60.76153 7678 ft 254 kts 139°
2026-04-20 22:45 -33.07992 -60.74741 8441 ft 259 kts 139°
2026-04-20 22:45 -33.09357 -60.73309 9196 ft 266 kts 139°
2026-04-20 22:45 -33.10819 -60.71795 9551 ft 290 kts 140°
2026-04-20 22:46 -33.12384 -60.70187 10093 ft 304 kts 140°
2026-04-20 22:46 -33.14053 -60.68478 10363 ft 328 kts 140°
2026-04-20 22:46 -33.15848 -60.66640 10587 ft 352 kts 140°
2026-04-20 22:46 -33.17766 -60.64676 10812 ft 370 kts 140°
2026-04-20 22:47 -33.19738 -60.62649 11251 ft 378 kts 140°
2026-04-20 22:47 -33.21739 -60.60587 11685 ft 382 kts 140°
2026-04-20 22:47 -33.23764 -60.58501 12130 ft 385 kts 140°
2026-04-20 22:47 -33.25801 -60.56400 12584 ft 388 kts 140°
2026-04-20 22:48 -33.27852 -60.54279 13036 ft 392 kts 140°
2026-04-20 22:48 -33.29925 -60.52134 13507 ft 396 kts 140°
2026-04-20 22:48 -33.32021 -60.49967 13960 ft 399 kts 140°
2026-04-20 22:48 -33.34205 -60.47896 14376 ft 401 kts 148°
2026-04-20 22:49 -33.36601 -60.46177 14799 ft 404 kts 149°
2026-04-20 22:49 -33.38780 -60.44032 15217 ft 409 kts 137°
2026-04-20 22:49 -33.40824 -60.41650 15659 ft 411 kts 136°
2026-04-20 22:49 -33.42871 -60.39240 16094 ft 414 kts 136°
2026-04-20 22:50 -33.44927 -60.36804 16555 ft 417 kts 136°
2026-04-20 22:50 -33.46996 -60.34347 17009 ft 420 kts 136°
2026-04-20 22:50 -33.49078 -60.31868 17470 ft 424 kts 136°
2026-04-20 22:50 -33.51180 -60.29370 17949 ft 426 kts 136°
2026-04-20 22:51 -33.53298 -60.26855 18497 ft 429 kts 137°
2026-04-20 22:51 -33.55423 -60.24333 19007 ft 431 kts 137°
2026-04-20 22:51 -33.57562 -60.21797 19573 ft 433 kts 137°
2026-04-20 22:51 -33.59704 -60.19257 20145 ft 434 kts 137°
2026-04-20 22:52 -33.61850 -60.16709 20718 ft 434 kts 137°
2026-04-20 22:52 -33.63998 -60.14157 21322 ft 435 kts 137°
2026-04-20 22:52 -33.66148 -60.11599 21944 ft 435 kts 137°
2026-04-20 22:52 -33.68292 -60.09044 22547 ft 435 kts 137°
2026-04-20 22:53 -33.70457 -60.06460 22913 ft 442 kts 137°
2026-04-20 22:53 -33.71915 -60.04718 22981 ft 451 kts 137°
2026-04-20 22:53 -33.74929 -60.01124 23004 ft 469 kts 137°
2026-04-20 22:53 -33.77276 -59.98325 23005 ft 482 kts 137°
2026-04-20 22:54 -33.78899 -59.96385 23006 ft 490 kts 137°
2026-04-20 22:54 -33.81324 -59.93478 23010 ft 495 kts 137°
2026-04-20 22:54 -33.83769 -59.90543 23006 ft 496 kts 137°
2026-04-20 22:54 -33.86209 -59.87614 23001 ft 496 kts 137°
2026-04-20 22:55 -33.88655 -59.84680 23014 ft 496 kts 137°
2026-04-20 22:55 -33.91097 -59.81754 23012 ft 495 kts 137°
2026-04-20 22:55 -33.93503 -59.78865 23013 ft 495 kts 137°
2026-04-20 22:55 -33.95943 -59.75929 23013 ft 495 kts 137°
2026-04-20 22:56 -33.98367 -59.73005 23016 ft 487 kts 137°
2026-04-20 22:56 -34.00722 -59.70158 23013 ft 475 kts 137°
2026-04-20 22:56 -34.02886 -59.67167 22922 ft 473 kts 126°
2026-04-20 22:56 -34.04466 -59.63688 21785 ft 473 kts 113°
2026-04-20 22:57 -34.05711 -59.60003 20014 ft 477 kts 111°
2026-04-20 22:57 -34.06906 -59.56266 18495 ft 477 kts 110°
2026-04-20 22:57 -34.08058 -59.52553 17119 ft 468 kts 110°
2026-04-20 22:57 -34.09176 -59.48944 16457 ft 445 kts 110°
2026-04-20 22:58 -34.10244 -59.45549 15891 ft 423 kts 110°
2026-04-20 22:58 -34.11283 -59.42297 15330 ft 412 kts 111°
2026-04-20 22:58 -34.12320 -59.39091 14747 ft 409 kts 111°
2026-04-20 22:58 -34.13355 -59.35907 13760 ft 405 kts 111°
2026-04-20 22:59 -34.14379 -59.32762 12654 ft 401 kts 111°
2026-04-20 22:59 -34.15408 -59.29593 11634 ft 410 kts 111°
2026-04-20 22:59 -34.16432 -59.26423 11308 ft 398 kts 110°
2026-04-20 22:59 -34.17404 -59.23406 11161 ft 371 kts 110°
2026-04-20 23:00 -34.18300 -59.20619 11041 ft 343 kts 111°
2026-04-20 23:00 -34.19138 -59.18011 10851 ft 327 kts 110°
2026-04-20 23:00 -34.19949 -59.15488 10647 ft 319 kts 110°
2026-04-20 23:00 -34.20747 -59.13006 10438 ft 314 kts 110°
2026-04-20 23:01 -34.21531 -59.10556 10301 ft 311 kts 110°
2026-04-20 23:01 -34.22310 -59.08115 10151 ft 311 kts 110°
2026-04-20 23:01 -34.23089 -59.05675 10008 ft 311 kts 110°
2026-04-20 23:01 -34.23872 -59.03221 9590 ft 312 kts 110°
2026-04-20 23:02 -34.24644 -59.00791 9277 ft 307 kts 109°
2026-04-20 23:02 -34.25411 -58.98379 8839 ft 307 kts 109°
2026-04-20 23:02 -34.26179 -58.95965 8410 ft 307 kts 109°
2026-04-20 23:02 -34.26940 -58.93573 8072 ft 303 kts 109°
2026-04-20 23:03 -34.27690 -58.91213 7770 ft 299 kts 109°
2026-04-20 23:03 -34.28433 -58.88878 7412 ft 296 kts 109°
2026-04-20 23:03 -34.29168 -58.86567 7041 ft 294 kts 109°
2026-04-20 23:03 -34.29900 -58.84271 6709 ft 291 kts 109°
2026-04-20 23:04 -34.30620 -58.82006 6396 ft 287 kts 108°
2026-04-20 23:04 -34.31320 -58.79802 6265 ft 275 kts 107°
2026-04-20 23:04 -34.31997 -58.77677 6093 ft 266 kts 107°
2026-04-20 23:04 -34.32883 -58.75735 5793 ft 264 kts 126°
2026-04-20 23:05 -34.34361 -58.74428 5450 ft 266 kts 151°
2026-04-20 23:05 -34.36017 -58.73448 5125 ft 264 kts 152°
2026-04-20 23:05 -34.37668 -58.72487 4798 ft 261 kts 151°
2026-04-20 23:05 -34.39161 -58.71311 4404 ft 254 kts 131°
2026-04-20 23:06 -34.40241 -58.69650 4065 ft 248 kts 119°
2026-04-20 23:06 -34.41178 -58.67923 3713 ft 242 kts 120°
2026-04-20 23:06 -34.42100 -58.66257 3415 ft 229 kts 121°
2026-04-20 23:06 -34.42970 -58.64709 3337 ft 217 kts 121°
2026-04-20 23:07 -34.43793 -58.63244 3231 ft 207 kts 120°
2026-04-20 23:07 -34.44584 -58.61837 3142 ft 197 kts 120°
2026-04-20 23:07 -34.45344 -58.60481 3065 ft 192 kts 119°
2026-04-20 23:07 -34.46088 -58.59155 3004 ft 189 kts 119°
2026-04-20 23:08 -34.46829 -58.57832 2922 ft 190 kts 120°
2026-04-20 23:08 -34.47573 -58.56505 2729 ft 189 kts 121°
2026-04-20 23:08 -34.48311 -58.55188 2488 ft 189 kts 120°
2026-04-20 23:08 -34.49049 -58.53870 2241 ft 189 kts 119°
2026-04-20 23:09 -34.49787 -58.52552 1994 ft 189 kts 120°
2026-04-20 23:09 -34.50525 -58.51234 1737 ft 189 kts 120°
2026-04-20 23:09 -34.51265 -58.49911 1506 ft 189 kts 122°
2026-04-20 23:09 -34.52004 -58.48592 1279 ft 189 kts 122°
2026-04-20 23:10 -34.52735 -58.47285 1028 ft 184 kts 122°
2026-04-20 23:10 -34.53416 -58.46070 800 ft 162 kts 121°
2026-04-20 23:10 -34.54011 -58.45005 564 ft 143 kts 125°
2026-04-20 23:10 -34.54527 -58.44081 379 ft 127 kts 125°
2026-04-20 23:11 -34.55008 -58.43172 280 ft 125 kts 118°
2026-04-20 23:11 -34.55521 -58.42246 674 ft 145 kts 124°
2026-04-20 23:11 -34.56192 -58.41174 1218 ft 174 kts 123°
2026-04-20 23:11 -34.56971 -58.39894 1722 ft 201 kts 118°
2026-04-20 23:12 -34.57620 -58.38337 2327 ft 214 kts 109°
2026-04-20 23:12 -34.58035 -58.36633 2906 ft 206 kts 96°
2026-04-20 23:12 -34.58191 -58.34938 3433 ft 203 kts 86°
2026-04-20 23:12 -34.58089 -58.33228 3952 ft 204 kts 77°
2026-04-20 23:13 -34.57746 -58.31594 4360 ft 192 kts 69°
2026-04-20 23:13 -34.57662 -58.29960 3732 ft 206 kts 101°
2026-04-20 23:13 -34.58299 -58.28369 3193 ft 212 kts 114°
2026-04-20 23:13 -34.59088 -58.26873 3046 ft 214 kts 117°
2026-04-20 23:14 -34.59876 -58.25356 3031 ft 212 kts 117°
2026-04-20 23:14 -34.60652 -58.23813 3032 ft 213 kts 115°
2026-04-20 23:14 -34.61448 -58.22314 3027 ft 211 kts 115°
2026-04-20 23:14 -34.62249 -58.20826 3030 ft 209 kts 116°
2026-04-20 23:15 -34.63064 -58.19372 3023 ft 208 kts 117°
2026-04-20 23:15 -34.63856 -58.17880 3025 ft 210 kts 115°
2026-04-20 23:15 -34.64643 -58.16377 3018 ft 211 kts 117°
2026-04-20 23:15 -34.65409 -58.14861 3163 ft 211 kts 116°
2026-04-20 23:16 -34.66190 -58.13336 3765 ft 215 kts 115°
2026-04-20 23:16 -34.67003 -58.11791 4324 ft 219 kts 116°
2026-04-20 23:16 -34.67835 -58.10221 4892 ft 224 kts 116°
2026-04-20 23:16 -34.68280 -58.08449 5030 ft 218 kts 85°
2026-04-20 23:17 -34.67848 -58.06732 5061 ft 213 kts 51°
2026-04-20 23:17 -34.66703 -58.05666 5064 ft 210 kts 18°
2026-04-20 23:17 -34.65260 -58.05628 5061 ft 214 kts 345°
2026-04-20 23:17 -34.64035 -58.06627 5063 ft 222 kts 316°
2026-04-20 23:18 -34.63081 -58.08159 5061 ft 225 kts 310°
2026-04-20 23:18 -34.62212 -58.09716 5060 ft 226 kts 309°
2026-04-20 23:18 -34.61350 -58.11277 5274 ft 222 kts 309°
2026-04-20 23:18 -34.60508 -58.12845 5533 ft 222 kts 307°
2026-04-20 23:19 -34.59642 -58.14420 5788 ft 226 kts 309°
2026-04-20 23:19 -34.58758 -58.16005 5994 ft 226 kts 309°
2026-04-20 23:19 -34.57850 -58.17559 6064 ft 226 kts 309°
2026-04-20 23:19 -34.56920 -58.19101 6073 ft 227 kts 309°
2026-04-20 23:20 -34.55984 -58.20642 6068 ft 227 kts 309°
2026-04-20 23:20 -34.55044 -58.22192 6080 ft 228 kts 309°
2026-04-20 23:20 -34.54102 -58.23746 6086 ft 229 kts 309°
2026-04-20 23:20 -34.53163 -58.25302 6079 ft 228 kts 309°
2026-04-20 23:21 -34.52237 -58.26857 6084 ft 227 kts 310°
2026-04-20 23:21 -34.51322 -58.28419 6079 ft 227 kts 309°
2026-04-20 23:21 -34.50406 -58.29977 6089 ft 227 kts 309°
2026-04-20 23:21 -34.49493 -58.31535 6079 ft 227 kts 309°
2026-04-20 23:22 -34.48585 -58.33099 6078 ft 227 kts 309°
2026-04-20 23:22 -34.47679 -58.34655 6084 ft 226 kts 308°
2026-04-20 23:22 -34.46767 -58.36210 6080 ft 226 kts 309°
2026-04-20 23:22 -34.45858 -58.37771 6081 ft 227 kts 309°
2026-04-20 23:23 -34.44946 -58.39329 6056 ft 226 kts 310°
2026-04-20 23:23 -34.44033 -58.40886 6044 ft 227 kts 309°
2026-04-20 23:23 -34.43116 -58.42446 6046 ft 228 kts 309°
2026-04-20 23:23 -34.42183 -58.43998 6044 ft 228 kts 309°
2026-04-20 23:24 -34.41248 -58.45544 6046 ft 227 kts 310°
2026-04-20 23:24 -34.40329 -58.47096 6051 ft 227 kts 310°
2026-04-20 23:24 -34.39421 -58.48650 6054 ft 225 kts 309°
2026-04-20 23:24 -34.38516 -58.50182 5993 ft 222 kts 309°
2026-04-20 23:25 -34.37631 -58.51678 5665 ft 222 kts 309°
2026-04-20 23:25 -34.36735 -58.53202 5315 ft 223 kts 309°
2026-04-20 23:25 -34.35839 -58.54729 5075 ft 220 kts 309°
2026-04-20 23:25 -34.34947 -58.56249 5043 ft 223 kts 310°
2026-04-20 23:26 -34.34044 -58.57794 5043 ft 226 kts 309°
2026-04-20 23:26 -34.33123 -58.59340 5046 ft 227 kts 310°
2026-04-20 23:26 -34.32213 -58.60898 5037 ft 226 kts 307°
2026-04-20 23:26 -34.31258 -58.62442 5035 ft 226 kts 309°
2026-04-20 23:27 -34.30310 -58.63967 5034 ft 227 kts 310°
2026-04-20 23:27 -34.29380 -58.65472 5035 ft 226 kts 309°
2026-04-20 23:27 -34.28546 -58.67094 5037 ft 230 kts 292°
2026-04-20 23:27 -34.28350 -58.69002 4833 ft 233 kts 263°
2026-04-20 23:28 -34.28980 -58.70812 4456 ft 239 kts 231°
2026-04-20 23:28 -34.30296 -58.72002 4100 ft 238 kts 199°
2026-04-20 23:28 -34.31909 -58.72248 3741 ft 233 kts 167°
2026-04-20 23:28 -34.33367 -58.71543 3443 ft 223 kts 139°
2026-04-20 23:29 -34.34559 -58.70399 3277 ft 211 kts 137°
2026-04-20 23:29 -34.35687 -58.69312 2964 ft 206 kts 137°
2026-04-20 23:29 -34.36807 -58.68230 2955 ft 206 kts 136°
2026-04-20 23:29 -34.37939 -58.67133 2959 ft 210 kts 136°
2026-04-20 23:30 -34.39086 -58.66024 2951 ft 209 kts 136°
2026-04-20 23:30 -34.40234 -58.64920 2956 ft 208 kts 136°
2026-04-20 23:30 -34.41362 -58.63838 2959 ft 199 kts 136°
2026-04-20 23:30 -34.42375 -58.62879 2953 ft 175 kts 135°
2026-04-20 23:31 -34.43304 -58.61992 2957 ft 167 kts 134°
2026-04-20 23:31 -34.44202 -58.61128 2960 ft 164 kts 135°
2026-04-20 23:31 -34.45081 -58.60277 2963 ft 164 kts 135°
2026-04-20 23:31 -34.45887 -58.59335 2985 ft 159 kts 123°
2026-04-20 23:32 -34.46543 -58.58272 2957 ft 157 kts 121°
2026-04-20 23:32 -34.47173 -58.57189 2834 ft 157 kts 119°
2026-04-20 23:32 -34.47790 -58.56105 2659 ft 155 kts 119°
2026-04-20 23:32 -34.48390 -58.55043 2467 ft 151 kts 115°
2026-04-20 23:33 -34.48999 -58.53953 2264 ft 163 kts 118°
2026-04-20 23:33 -34.49646 -58.52799 2046 ft 167 kts 120°
2026-04-20 23:33 -34.50299 -58.51635 1818 ft 163 kts 121°
2026-04-20 23:33 -34.50892 -58.50581 1602 ft 140 kts 122°
2026-04-20 23:34 -34.51418 -58.49640 1451 ft 132 kts 121°
2026-04-20 23:34 -34.51922 -58.48739 1290 ft 128 kts 121°
2026-04-20 23:34 -34.52421 -58.47846 1114 ft 128 kts 120°
2026-04-20 23:34 -34.52762 -58.47234 1023 ft 141 kts 120°
2026-04-20 23:35 -34.53329 -58.46194 788 ft 155 kts 121°
2026-04-20 23:35 -34.54527 -58.44060 366 ft 152 kts 121°
2026-04-20 23:35 -34.55080 -58.43073 209 ft 134 kts 121°
2026-04-20 23:36 -34.55601 -58.42150 30 ft 125 kts 123°
2026-04-20 23:36 -34.56002 -58.41414 25 ft 61 kts 124°
2026-04-20 23:36 -34.56162 -58.41153 27 ft 26 kts 125°
2026-04-20 23:36 -34.56166 -58.41011 27 ft 8 kts 60°
2026-04-20 23:37 -34.56163 -58.41004 25 ft 0 kts 60°
2026-04-20 23:38 -34.56151 -58.40985 30 ft 9 kts 44°
2026-04-20 23:38 -34.56126 -58.40992 27 ft 2 kts 321°
2026-04-20 23:38 -34.56109 -58.41008 29 ft 4 kts 321°
2026-04-20 23:38 -34.56085 -58.41036 26 ft 5 kts 307°
2026-04-20 23:39 -34.56062 -58.41081 27 ft 7 kts 304°
2026-04-20 23:39 -34.56030 -58.41131 30 ft 8 kts 308°
2026-04-20 23:39 -34.55992 -58.41192 28 ft 10 kts 307°
2026-04-20 23:39 -34.55954 -58.41253 29 ft 8 kts 306°
2026-04-20 23:40 -34.55916 -58.41301 28 ft 11 kts 331°
2026-04-20 23:40 -34.55856 -58.41285 28 ft 5 kts
2026-04-20 23:40 -34.55813 -58.41311 28 ft 8 kts 342°
2026-04-20 23:40 -34.55787 -58.41295 27 ft 2 kts 35°
2026-04-20 23:41 -34.55785 -58.41293 27 ft 0 kts 35°